sat.trackr.live / text

‹ back to catalog

CENTISPACE-2 S6

NORAD 68355 · 2026-060F

PAYLOAD ACTIVE UNKNOWN

§ Identity

Operator
Country
PRC
Launch date
2026-03-22
Launch site
YSLA
Launch vehicle
Mass (kg)
RCS (m²)

External: N2YO · Heavens-Above · Gunter

§ Orbital elements

Epoch: 2026-09-18T22:18:17.834112Z

Period
101.00 min
Inclination
54.9780°
Eccentricity
0.0008997
Mean motion
14.25784776 rev/d
Perigee alt
799.4 km
Apogee alt
812.3 km
Semi-major
7,184.0 km
B*
3.1802e-5
RAAN
31.1450°
Arg perigee
261.6164°
Mean anomaly
98.3793°
Rev number
2,632

§ Raw data

CENTISPACE-2 S61 68355U 26060F   26261.92937308 -.00000082  00000+0  31802-4 0  99972 68355  54.9780  31.1450 0008997 261.6164  98.3793 14.25784776 26328

JSON: /api/v1/satellites/68355 · /tle

For live sub-satellite position, see the globe view (requires WebGL).

§ Visibility from observer

Set your observer location to see the next 7 days of passes ≥ 10°. The values pass through the URL so the page stays shareable.

No JS? Fill the form by hand. The geolocation button needs JavaScript.